BHS239 KMCO-MYNN

Flight info

Callsign BHS239
Flight time N/A
Altitude 37000
Route DDANY3 JIPOD DCT JUNIP DCT ZFP BR63V ZQA
Aircraft B737/M-SDE2E3FGHIRWXY/LB1

Departure

Time N/A
Airport Orlando International Airport (KMCO)

Arrival

Time 2026-05-07 02:29
Airport Lynden Pindling International Airport (MYNN)
Time Latitude Longitude Altitude Speed Heading
2026-05-07 02:22 25.29723 -77.95705 9550 ft 291 kts 135°
2026-05-07 02:22 25.28274 -77.94190 9072 ft 285 kts 136°
2026-05-07 02:22 25.26838 -77.92689 8533 ft 283 kts 136°
2026-05-07 02:22 25.25417 -77.91206 8024 ft 280 kts 136°
2026-05-07 02:23 25.24014 -77.89742 7599 ft 274 kts 137°
2026-05-07 02:23 25.22643 -77.88310 7256 ft 272 kts 137°
2026-05-07 02:23 25.20326 -77.85895 6656 ft 272 kts 137°
2026-05-07 02:23 25.18951 -77.84461 6299 ft 271 kts 137°
2026-05-07 02:24 25.17582 -77.83037 5936 ft 270 kts 137°
2026-05-07 02:24 25.16215 -77.81613 5582 ft 269 kts 137°
2026-05-07 02:24 25.14874 -77.80218 5239 ft 269 kts 137°
2026-05-07 02:24 25.13514 -77.78802 4889 ft 268 kts 137°
2026-05-07 02:25 25.10365 -77.75524 4037 ft 267 kts 138°
2026-05-07 02:25 25.06582 -77.71592 3457 ft 247 kts 138°
2026-05-07 02:25 25.05364 -77.70326 3429 ft 236 kts 137°
2026-05-07 02:25 25.04198 -77.69099 3329 ft 228 kts 133°
2026-05-07 02:26 25.03439 -77.66496 3147 ft 212 kts 90°
2026-05-07 02:26 25.03455 -77.64830 2881 ft 219 kts 88°
2026-05-07 02:26 25.03481 -77.63146 2642 ft 220 kts 89°
2026-05-07 02:26 25.03540 -77.57304 1595 ft 207 kts 88°
2026-05-07 02:27 25.03550 -77.55791 1358 ft 189 kts 89°
2026-05-07 02:27 25.03557 -77.54397 1137 ft 175 kts 88°
2026-05-07 02:27 25.03564 -77.53129 958 ft 156 kts 88°
2026-05-07 02:27 25.03571 -77.51974 729 ft 144 kts 88°
2026-05-07 02:28 25.03576 -77.50914 500 ft 136 kts 88°
2026-05-07 02:28 25.03575 -77.49837 372 ft 144 kts 89°
2026-05-07 02:28 25.03588 -77.48733 177 ft 141 kts 88°
2026-05-07 02:28 25.03594 -77.47671 20 ft 133 kts 89°
2026-05-07 02:29 25.03597 -77.46837 17 ft 79 kts 87°
2026-05-07 02:29 25.03599 -77.46359 17 ft 57 kts 89°
2026-05-07 02:29 25.03658 -77.46050 17 ft 26 kts 36°
2026-05-07 02:29 25.03778 -77.45997 21 ft 18 kts 323°
2026-05-07 02:30 25.03870 -77.46097 19 ft 20 kts 322°
2026-05-07 02:30 25.04056 -77.46305 18 ft 82 kts 314°
2026-05-07 02:30 25.04606 -77.46926 20 ft 109 kts 311°
2026-05-07 02:30 25.04976 -77.46999 16 ft 30 kts 15°
2026-05-07 02:31 25.05014 -77.46872 16 ft 6 kts 76°
2026-05-07 02:31 25.05033 -77.46878 16 ft 0 kts 294°